Time,TemperatureF,DewpointF,PressureIn,WindDirection,WindDirectionDegrees,WindSpeedMPH,WindSpeedGustMPH,Humidity,HourlyPrecipIn,Conditions,Clouds,dailyrainin,SoftwareType,DateUTC
2013-03-11 00:00:00,33.0,29.6,29.90,SW,225,5.0,12.0,87,0.00,,,0.00,Weather View 32 v70,2013-03-11 04:00:00,
2013-03-11 00:05:00,33.0,29.6,29.90,WSW,247,1.0,12.0,87,0.00,,,0.00,Weather View 32 v70,2013-03-11 04:05:00,
2013-03-11 00:10:00,33.0,29.6,29.91,West,270,2.0,12.0,87,0.00,,,0.00,Weather View 32 v70,2013-03-11 04:10:00,
2013-03-11 00:15:00,33.0,29.6,29.91,SW,225,4.0,12.0,87,0.00,,,0.00,Weather View 32 v70,2013-03-11 04:15:00,
2013-03-11 00:20:00,33.0,29.6,29.90,WSW,247,1.0,12.0,87,0.00,,,0.00,Weather View 32 v70,2013-03-11 04:20:00,
2013-03-11 00:25:00,33.0,29.6,29.88,WSW,247,3.0,12.0,87,0.00,,,0.00,Weather View 32 v70,2013-03-11 04:25:00,
2013-03-11 00:30:00,33.0,29.6,29.90,West,270,2.0,12.0,87,0.00,,,0.00,Weather View 32 v70,2013-03-11 04:30:00,
2013-03-11 00:35:00,33.0,29.6,29.90,SSW,202,9.0,12.0,87,0.00,,,0.00,Weather View 32 v70,2013-03-11 04:35:00,
2013-03-11 00:40:00,33.0,29.8,29.89,SE,135,3.0,12.0,88,0.00,,,0.00,Weather View 32 v70,2013-03-11 04:40:00,
2013-03-11 00:45:00,33.0,29.8,29.88,WNW,292,1.0,10.0,88,0.00,,,0.00,Weather View 32 v70,2013-03-11 04:45:00,
2013-03-11 00:50:00,33.0,29.8,29.89,WSW,247,3.0,10.0,88,0.00,,,0.00,Weather View 32 v70,2013-03-11 04:50:00,
2013-03-11 00:55:00,33.0,29.8,29.89,SW,225,7.0,10.0,88,0.00,,,0.00,Weather View 32 v70,2013-03-11 04:55:00,
2013-03-11 01:00:00,33.0,29.8,29.89,SSW,202,3.0,10.0,88,0.00,,,0.00,Weather View 32 v70,2013-03-11 05:00:00,
2013-03-11 01:05:00,33.0,29.8,29.90,SW,225,5.0,10.0,88,0.00,,,0.00,Weather View 32 v70,2013-03-11 05:05:00,
2013-03-11 01:10:00,33.0,29.6,29.89,WSW,247,6.0,10.0,87,0.00,,,0.00,Weather View 32 v70,2013-03-11 05:10:00,
2013-03-11 01:15:00,33.0,29.8,29.89,SSW,202,6.0,10.0,88,0.00,,,0.00,Weather View 32 v70,2013-03-11 05:15:00,
2013-03-11 01:20:00,34.0,30.8,29.86,SW,225,4.0,10.0,88,0.00,,,0.00,Weather View 32 v70,2013-03-11 05:20:00,
2013-03-11 01:25:00,34.0,30.8,29.89,SSW,202,7.0,10.0,88,0.00,,,0.00,Weather View 32 v70,2013-03-11 05:25:00,
2013-03-11 01:30:00,34.0,30.8,29.89,SSW,202,2.0,10.0,88,0.00,,,0.00,Weather View 32 v70,2013-03-11 05:30:00,
2013-03-11 01:35:00,34.0,30.8,29.90,WSW,247,3.0,10.0,88,0.00,,,0.00,Weather View 32 v70,2013-03-11 05:35:00,
2013-03-11 01:40:00,34.0,30.8,29.89,WSW,247,6.0,10.0,88,0.00,,,0.00,Weather View 32 v70,2013-03-11 05:40:00,
2013-03-11 01:45:00,34.0,31.1,29.89,SW,225,7.0,10.0,89,0.00,,,0.00,Weather View 32 v70,2013-03-11 05:45:00,
2013-03-11 01:50:00,34.0,31.1,29.89,SW,225,6.0,10.0,89,0.00,,,0.00,Weather View 32 v70,2013-03-11 05:50:00,
2013-03-11 01:55:00,34.0,31.1,29.89,SSW,202,2.0,10.0,89,0.00,,,0.00,Weather View 32 v70,2013-03-11 05:55:00,
2013-03-11 02:00:00,34.0,31.1,29.90,SSW,202,6.0,10.0,89,0.00,,,0.00,Weather View 32 v70,2013-03-11 06:00:00,
2013-03-11 02:05:00,34.0,31.1,29.90,WSW,247,1.0,10.0,89,0.00,,,0.00,Weather View 32 v70,2013-03-11 06:05:00,
2013-03-11 02:10:00,34.0,31.1,29.90,SSE,157,0.0,10.0,89,0.00,,,0.00,Weather View 32 v70,2013-03-11 06:10:00,
2013-03-11 02:15:00,34.0,31.1,29.90,South,180,2.0,10.0,89,0.00,,,0.00,Weather View 32 v70,2013-03-11 06:15:00,
2013-03-11 02:20:00,34.0,31.1,29.90,SSW,202,1.0,9.0,89,0.00,,,0.00,Weather View 32 v70,2013-03-11 06:20:00,
2013-03-11 02:25:00,34.0,31.1,29.90,WSW,247,6.0,9.0,89,0.00,,,0.00,Weather View 32 v70,2013-03-11 06:25:00,
2013-03-11 02:30:00,34.0,31.1,29.89,WSW,247,6.0,9.0,89,0.00,,,0.00,Weather View 32 v70,2013-03-11 06:30:00,
2013-03-11 02:35:00,34.0,31.1,29.89,SW,225,3.0,9.0,89,0.00,,,0.00,Weather View 32 v70,2013-03-11 06:35:00,
2013-03-11 02:40:00,34.0,31.1,29.90,SSW,202,5.0,9.0,89,0.00,,,0.00,Weather View 32 v70,2013-03-11 06:40:00,
2013-03-11 02:45:00,34.0,31.1,29.89,West,270,1.0,9.0,89,0.00,,,0.00,Weather View 32 v70,2013-03-11 06:45:00,
2013-03-11 02:50:00,34.0,31.1,29.90,SW,225,4.0,9.0,89,0.00,,,0.00,Weather View 32 v70,2013-03-11 06:50:00,
2013-03-11 02:55:00,34.0,31.1,29.90,WSW,247,1.0,9.0,89,0.00,,,0.00,Weather View 32 v70,2013-03-11 06:55:00,
2013-03-11 03:00:00,35.0,32.1,29.90,South,180,0.0,9.0,89,0.00,,,0.00,Weather View 32 v70,2013-03-11 07:00:00,
2013-03-11 03:05:00,35.0,32.1,29.90,WSW,247,2.0,9.0,89,0.00,,,0.00,Weather View 32 v70,2013-03-11 07:05:00,
2013-03-11 03:10:00,35.0,32.1,29.89,SSW,202,1.0,9.0,89,0.00,,,0.00,Weather View 32 v70,2013-03-11 07:10:00,
2013-03-11 03:15:00,35.0,32.1,29.89,SSW,202,9.0,9.0,89,0.00,,,0.00,Weather View 32 v70,2013-03-11 07:15:00,
2013-03-11 03:20:00,35.0,32.1,29.88,SSW,202,7.0,11.0,89,0.00,,,0.00,Weather View 32 v70,2013-03-11 07:20:00,
2013-03-11 03:25:00,35.0,32.4,29.88,SSW,202,3.0,11.0,90,0.00,,,0.00,Weather View 32 v70,2013-03-11 07:25:00,
2013-03-11 03:30:00,35.0,32.1,29.88,WSW,247,1.0,12.0,89,0.00,,,0.00,Weather View 32 v70,2013-03-11 07:30:00,
2013-03-11 03:35:00,35.0,32.1,29.88,SW,225,7.0,12.0,89,0.00,,,0.00,Weather View 32 v70,2013-03-11 07:35:00,
2013-03-11 03:40:00,35.0,32.1,29.88,SW,225,7.0,12.0,89,0.00,,,0.00,Weather View 32 v70,2013-03-11 07:40:00,
2013-03-11 03:45:00,35.0,32.1,29.88,SSW,202,3.0,12.0,89,0.00,,,0.00,Weather View 32 v70,2013-03-11 07:45:00,
2013-03-11 03:50:00,35.0,32.1,29.87,SSW,202,4.0,12.0,89,0.00,,,0.00,Weather View 32 v70,2013-03-11 07:50:00,
2013-03-11 03:55:00,35.0,32.1,29.87,WSW,247,8.0,12.0,89,0.00,,,0.00,Weather View 32 v70,2013-03-11 07:55:00,
2013-03-11 04:00:00,35.0,32.1,29.87,SW,225,9.0,12.0,89,0.00,,,0.00,Weather View 32 v70,2013-03-11 08:00:00,
2013-03-11 04:05:00,35.0,32.1,29.87,SSW,202,7.0,12.0,89,0.00,,,0.00,Weather View 32 v70,2013-03-11 08:05:00,
2013-03-11 04:10:00,35.0,32.1,29.87,SSW,202,6.0,12.0,89,0.00,,,0.00,Weather View 32 v70,2013-03-11 08:10:00,
2013-03-11 04:15:00,35.0,32.1,29.86,SSW,202,9.0,12.0,89,0.00,,,0.00,Weather View 32 v70,2013-03-11 08:15:00,
2013-03-11 04:20:00,36.0,33.1,29.86,WSW,247,6.0,15.0,89,0.00,,,0.00,Weather View 32 v70,2013-03-11 08:20:00,
2013-03-11 04:30:00,36.0,32.8,29.87,SW,225,8.0,15.0,88,0.00,,,0.00,Weather View 32 v70,2013-03-11 08:30:00,
2013-03-11 04:35:00,36.0,32.8,29.87,SW,225,2.0,15.0,88,0.00,,,0.00,Weather View 32 v70,2013-03-11 08:35:00,
2013-03-11 04:40:00,36.0,32.8,29.86,WSW,247,7.0,15.0,88,0.00,,,0.00,Weather View 32 v70,2013-03-11 08:40:00,
2013-03-11 04:45:00,36.0,32.8,29.86,SSW,202,7.0,15.0,88,0.00,,,0.00,Weather View 32 v70,2013-03-11 08:45:00,
2013-03-11 04:50:00,36.0,32.8,29.85,SW,225,3.0,15.0,88,0.00,,,0.00,Weather View 32 v70,2013-03-11 08:50:00,
2013-03-11 04:55:00,36.0,33.1,29.85,SSW,202,7.0,15.0,89,0.00,,,0.00,Weather View 32 v70,2013-03-11 08:55:00,
2013-03-11 05:00:00,36.0,33.1,29.82,SW,225,6.0,15.0,89,0.00,,,0.00,Weather View 32 v70,2013-03-11 09:00:00,
2013-03-11 05:05:00,36.0,33.1,29.82,SW,225,5.0,15.0,89,0.00,,,0.00,Weather View 32 v70,2013-03-11 09:05:00,
2013-03-11 05:10:00,36.0,32.8,29.82,SW,225,5.0,15.0,88,0.00,,,0.00,Weather View 32 v70,2013-03-11 09:10:00,
2013-03-11 05:15:00,36.0,32.8,29.84,SSW,202,1.0,15.0,88,0.00,,,0.00,Weather View 32 v70,2013-03-11 09:15:00,
2013-03-11 05:20:00,36.0,32.8,29.84,South,180,7.0,13.0,88,0.00,,,0.00,Weather View 32 v70,2013-03-11 09:20:00,
2013-03-11 05:25:00,36.0,33.1,29.84,SW,225,5.0,13.0,89,0.00,,,0.00,Weather View 32 v70,2013-03-11 09:25:00,
2013-03-11 05:30:00,37.0,33.8,29.84,WSW,247,3.0,13.0,88,0.00,,,0.00,Weather View 32 v70,2013-03-11 09:30:00,
2013-03-11 05:35:00,36.0,33.1,29.85,WSW,247,2.0,13.0,89,0.00,,,0.00,Weather View 32 v70,2013-03-11 09:35:00,
2013-03-11 05:40:00,36.0,32.8,29.84,SSW,202,3.0,13.0,88,0.00,,,0.00,Weather View 32 v70,2013-03-11 09:40:00,
2013-03-11 05:45:00,36.0,32.8,29.85,SSW,202,6.0,13.0,88,0.00,,,0.00,Weather View 32 v70,2013-03-11 09:45:00,
2013-03-11 05:50:00,36.0,33.1,29.85,SW,225,3.0,13.0,89,0.00,,,0.00,Weather View 32 v70,2013-03-11 09:50:00,
2013-03-11 05:55:00,36.0,33.1,29.84,SSW,202,4.0,13.0,89,0.00,,,0.00,Weather View 32 v70,2013-03-11 09:55:00,
2013-03-11 06:00:00,36.0,33.1,29.85,SSW,202,8.0,13.0,89,0.00,,,0.00,Weather View 32 v70,2013-03-11 10:00:00,
2013-03-11 06:05:00,36.0,33.1,29.85,South,180,2.0,13.0,89,0.00,,,0.00,Weather View 32 v70,2013-03-11 10:05:00,
2013-03-11 06:10:00,36.0,33.1,29.85,SSW,202,6.0,13.0,89,0.00,,,0.00,Weather View 32 v70,2013-03-11 10:10:00,
2013-03-11 06:15:00,37.0,34.1,29.85,SW,225,1.0,13.0,89,0.00,,,0.00,Weather View 32 v70,2013-03-11 10:15:00,
2013-03-11 06:20:00,37.0,34.1,29.85,WSW,247,5.0,13.0,89,0.00,,,0.00,Weather View 32 v70,2013-03-11 10:20:00,
2013-03-11 06:25:00,37.0,33.8,29.86,SSE,157,1.0,13.0,88,0.00,,,0.00,Weather View 32 v70,2013-03-11 10:25:00,
2013-03-11 06:30:00,37.0,33.8,29.86,SSW,202,9.0,13.0,88,0.00,,,0.00,Weather View 32 v70,2013-03-11 10:30:00,
2013-03-11 06:35:00,37.0,34.1,29.85,SSW,202,7.0,13.0,89,0.00,,,0.00,Weather View 32 v70,2013-03-11 10:35:00,
2013-03-11 06:40:00,37.0,34.1,29.85,SSW,202,3.0,13.0,89,0.00,,,0.00,Weather View 32 v70,2013-03-11 10:40:00,
2013-03-11 06:45:00,37.0,34.1,29.86,West,270,2.0,13.0,89,0.00,,,0.00,Weather View 32 v70,2013-03-11 10:45:00,
2013-03-11 06:50:00,37.0,34.1,29.86,WSW,247,3.0,13.0,89,0.00,,,0.00,Weather View 32 v70,2013-03-11 10:50:00,
2013-03-11 06:55:00,37.0,34.1,29.85,South,180,7.0,10.0,89,0.00,,,0.00,Weather View 32 v70,2013-03-11 10:55:00,
2013-03-11 07:00:00,37.0,34.1,29.85,South,180,3.0,10.0,89,0.00,,,0.00,Weather View 32 v70,2013-03-11 11:00:00,
2013-03-11 07:05:00,37.0,34.3,29.85,SW,225,4.0,10.0,90,0.00,,,0.00,Weather View 32 v70,2013-03-11 11:05:00,
2013-03-11 07:10:00,37.0,34.3,29.86,SW,225,2.0,10.0,90,0.00,,,0.00,Weather View 32 v70,2013-03-11 11:10:00,
2013-03-11 07:15:00,37.0,34.3,29.86,SW,225,6.0,10.0,90,0.00,,,0.00,Weather View 32 v70,2013-03-11 11:15:00,
2013-03-11 07:20:00,37.0,34.3,29.86,SW,225,3.0,10.0,90,0.00,,,0.00,Weather View 32 v70,2013-03-11 11:20:00,
2013-03-11 07:25:00,37.0,34.3,29.86,WSW,247,6.0,10.0,90,0.00,,,0.00,Weather View 32 v70,2013-03-11 11:25:00,
2013-03-11 07:30:00,37.0,34.3,29.86,SW,225,2.0,10.0,90,0.00,,,0.00,Weather View 32 v70,2013-03-11 11:30:00,
2013-03-11 07:35:00,37.0,34.3,29.86,SW,225,1.0,9.0,90,0.00,,,0.00,Weather View 32 v70,2013-03-11 11:35:00,
2013-03-11 07:40:00,37.0,34.3,29.87,WSW,247,0.0,9.0,90,0.00,,,0.00,Weather View 32 v70,2013-03-11 11:40:00,
2013-03-11 07:45:00,37.0,34.3,29.87,WNW,292,1.0,9.0,90,0.00,,,0.00,Weather View 32 v70,2013-03-11 11:45:00,
2013-03-11 07:50:00,37.0,34.3,29.88,WSW,247,3.0,9.0,90,0.00,,,0.00,Weather View 32 v70,2013-03-11 11:50:00,
2013-03-11 07:55:00,38.0,35.0,29.88,SSW,202,5.0,9.0,89,0.00,,,0.00,Weather View 32 v70,2013-03-11 11:55:00,
2013-03-11 08:00:00,38.0,35.0,29.88,WSW,247,6.0,9.0,89,0.00,,,0.00,Weather View 32 v70,2013-03-11 12:00:00,
2013-03-11 08:05:00,38.0,35.0,29.88,SW,225,5.0,8.0,89,0.00,,,0.00,Weather View 32 v70,2013-03-11 12:05:00,
2013-03-11 08:10:00,38.0,34.8,29.88,SSW,202,5.0,8.0,88,0.00,,,0.00,Weather View 32 v70,2013-03-11 12:10:00,
2013-03-11 08:15:00,38.0,34.8,29.89,South,180,7.0,9.0,88,0.00,,,0.00,Weather View 32 v70,2013-03-11 12:15:00,
2013-03-11 08:20:00,38.0,34.8,29.90,South,180,2.0,9.0,88,0.00,,,0.00,Weather View 32 v70,2013-03-11 12:20:00,
2013-03-11 08:25:00,38.0,34.8,29.90,SW,225,6.0,9.0,88,0.00,,,0.00,Weather View 32 v70,2013-03-11 12:25:00,
2013-03-11 08:30:00,38.0,34.8,29.90,SW,225,7.0,9.0,88,0.00,,,0.00,Weather View 32 v70,2013-03-11 12:30:00,
2013-03-11 08:35:00,38.0,34.8,29.91,SW,225,3.0,9.0,88,0.00,,,0.00,Weather View 32 v70,2013-03-11 12:35:00,
2013-03-11 08:40:00,38.0,34.8,29.90,South,180,7.0,9.0,88,0.00,,,0.00,Weather View 32 v70,2013-03-11 12:40:00,
2013-03-11 08:45:00,38.0,34.8,29.91,WSW,247,6.0,9.0,88,0.00,,,0.00,Weather View 32 v70,2013-03-11 12:45:00,
2013-03-11 08:50:00,38.0,34.8,29.90,SSW,202,6.0,9.0,88,0.00,,,0.00,Weather View 32 v70,2013-03-11 12:50:00,
2013-03-11 08:55:00,38.0,34.8,29.90,SSW,202,6.0,9.0,88,0.00,,,0.00,Weather View 32 v70,2013-03-11 12:55:00,
2013-03-11 09:00:00,38.0,34.8,29.90,SW,225,2.0,10.0,88,0.00,,,0.00,Weather View 32 v70,2013-03-11 13:00:00,
2013-03-11 09:05:00,38.0,34.8,29.92,SW,225,1.0,10.0,88,0.00,,,0.00,Weather View 32 v70,2013-03-11 13:05:00,
2013-03-11 09:10:00,38.0,34.8,29.91,South,180,1.0,10.0,88,0.00,,,0.00,Weather View 32 v70,2013-03-11 13:10:00,
2013-03-11 09:15:00,38.0,34.8,29.91,SSW,202,6.0,10.0,88,0.00,,,0.00,Weather View 32 v70,2013-03-11 13:15:00,
2013-03-11 09:20:00,38.0,34.8,29.91,South,180,4.0,10.0,88,0.00,,,0.00,Weather View 32 v70,2013-03-11 13:20:00,
2013-03-11 09:25:00,39.0,35.7,29.91,SSW,202,7.0,10.0,88,0.00,,,0.00,Weather View 32 v70,2013-03-11 13:25:00,
2013-03-11 09:30:00,38.0,34.8,29.90,South,180,6.0,12.0,88,0.00,,,0.00,Weather View 32 v70,2013-03-11 13:30:00,
2013-03-11 09:35:00,38.0,34.8,29.89,SSW,202,5.0,12.0,88,0.00,,,0.00,Weather View 32 v70,2013-03-11 13:35:00,
2013-03-11 09:40:00,39.0,35.7,29.89,SSW,202,7.0,12.0,88,0.00,,,0.00,Weather View 32 v70,2013-03-11 13:40:00,
2013-03-11 09:45:00,39.0,35.7,29.90,SSW,202,10.0,12.0,88,0.00,,,0.00,Weather View 32 v70,2013-03-11 13:45:00,
2013-03-11 09:50:00,39.0,35.7,29.91,SSW,202,6.0,12.0,88,0.00,,,0.00,Weather View 32 v70,2013-03-11 13:50:00,
2013-03-11 09:55:00,39.0,35.7,29.92,SW,225,6.0,12.0,88,0.00,,,0.00,Weather View 32 v70,2013-03-11 13:55:00,
2013-03-11 10:00:00,39.0,35.5,29.92,SW,225,12.0,12.0,87,0.00,,,0.00,Weather View 32 v70,2013-03-11 14:00:00,
2013-03-11 10:05:00,39.0,35.7,29.92,SSE,157,1.0,13.0,88,0.00,,,0.00,Weather View 32 v70,2013-03-11 14:05:00,
2013-03-11 10:10:00,39.0,35.7,29.92,SW,225,6.0,13.0,88,0.00,,,0.00,Weather View 32 v70,2013-03-11 14:10:00,
2013-03-11 10:15:00,39.0,35.7,29.92,SSW,202,8.0,13.0,88,0.00,,,0.00,Weather View 32 v70,2013-03-11 14:15:00,
2013-03-11 10:20:00,39.0,35.7,29.90,SSW,202,10.0,13.0,88,0.00,,,0.00,Weather View 32 v70,2013-03-11 14:20:00,
2013-03-11 10:25:00,39.0,35.5,29.90,SSW,202,7.0,13.0,87,0.00,,,0.00,Weather View 32 v70,2013-03-11 14:25:00,
2013-03-11 10:30:00,39.0,35.5,29.90,SSW,202,14.0,14.0,87,0.00,,,0.00,Weather View 32 v70,2013-03-11 14:30:00,
2013-03-11 10:35:00,40.0,36.1,29.89,NNW,337,2.0,16.0,86,0.00,,,0.00,Weather View 32 v70,2013-03-11 14:35:00,
2013-03-11 10:40:00,40.0,35.9,29.90,SSW,202,7.0,16.0,85,0.00,,,0.00,Weather View 32 v70,2013-03-11 14:40:00,
2013-03-11 10:45:00,40.0,35.9,29.90,SSW,202,6.0,16.0,85,0.00,,,0.00,Weather View 32 v70,2013-03-11 14:45:00,
2013-03-11 10:50:00,40.0,35.9,29.90,SSW,202,9.0,16.0,85,0.00,,,0.00,Weather View 32 v70,2013-03-11 14:50:00,
2013-03-11 10:55:00,40.0,35.9,29.90,SW,225,6.0,16.0,85,0.00,,,0.00,Weather View 32 v70,2013-03-11 14:55:00,
2013-03-11 11:00:00,40.0,35.6,29.90,SW,225,7.0,16.0,84,0.00,,,0.00,Weather View 32 v70,2013-03-11 15:00:00,
2013-03-11 11:05:00,40.0,35.2,29.90,SW,225,13.0,16.0,83,0.00,,,0.00,Weather View 32 v70,2013-03-11 15:05:00,
2013-03-11 11:10:00,40.0,35.2,29.90,SW,225,8.0,16.0,83,0.00,,,0.00,Weather View 32 v70,2013-03-11 15:10:00,
2013-03-11 11:15:00,40.0,35.2,29.90,SW,225,9.0,18.0,83,0.00,,,0.00,Weather View 32 v70,2013-03-11 15:15:00,
2013-03-11 11:20:00,40.0,35.2,29.90,SSE,157,5.0,18.0,83,0.00,,,0.00,Weather View 32 v70,2013-03-11 15:20:00,
2013-03-11 11:25:00,40.0,35.2,29.90,WNW,292,3.0,18.0,83,0.00,,,0.00,Weather View 32 v70,2013-03-11 15:25:00,
2013-03-11 11:30:00,40.0,34.6,29.90,SSE,157,9.0,18.0,81,0.00,,,0.00,Weather View 32 v70,2013-03-11 15:30:00,
2013-03-11 11:35:00,41.0,35.6,29.89,SW,225,6.0,18.0,81,0.00,,,0.00,Weather View 32 v70,2013-03-11 15:35:00,
2013-03-11 11:40:00,41.0,35.6,29.90,SSW,202,9.0,18.0,81,0.00,,,0.00,Weather View 32 v70,2013-03-11 15:40:00,
2013-03-11 11:45:00,40.0,34.6,29.89,SSW,202,12.0,18.0,81,0.00,,,0.00,Weather View 32 v70,2013-03-11 15:45:00,
2013-03-11 11:50:00,40.0,34.6,29.89,SSW,202,9.0,19.0,81,0.00,,,0.00,Weather View 32 v70,2013-03-11 15:50:00,
2013-03-11 11:55:00,40.0,34.6,29.89,SSE,157,12.0,19.0,81,0.00,,,0.00,Weather View 32 v70,2013-03-11 15:55:00,
2013-03-11 12:00:00,40.0,34.6,29.89,SW,225,15.0,23.0,81,0.00,,,0.00,Weather View 32 v70,2013-03-11 16:00:00,
2013-03-11 12:05:00,41.0,35.6,29.88,SSW,202,18.0,23.0,81,0.00,,,0.00,Weather View 32 v70,2013-03-11 16:05:00,
2013-03-11 12:10:00,40.0,34.6,29.89,South,180,13.0,23.0,81,0.00,,,0.00,Weather View 32 v70,2013-03-11 16:10:00,
2013-03-11 12:15:00,41.0,35.3,29.89,SSE,157,7.0,23.0,80,0.00,,,0.00,Weather View 32 v70,2013-03-11 16:15:00,
2013-03-11 12:20:00,41.0,35.0,29.89,SSW,202,9.0,23.0,79,0.00,,,0.00,Weather View 32 v70,2013-03-11 16:20:00,
2013-03-11 12:25:00,41.0,35.0,29.90,SW,225,8.0,23.0,79,0.00,,,0.00,Weather View 32 v70,2013-03-11 16:25:00,
2013-03-11 12:30:00,41.0,35.0,29.90,SSW,202,8.0,23.0,79,0.00,,,0.00,Weather View 32 v70,2013-03-11 16:30:00,
2013-03-11 12:35:00,41.0,35.3,29.90,SSW,202,13.0,23.0,80,0.00,,,0.00,Weather View 32 v70,2013-03-11 16:35:00,
2013-03-11 12:40:00,41.0,35.3,29.89,SSW,202,15.0,23.0,80,0.00,,,0.00,Weather View 32 v70,2013-03-11 16:40:00,
2013-03-11 12:45:00,41.0,35.0,29.89,ESE,112,5.0,23.0,79,0.00,,,0.00,Weather View 32 v70,2013-03-11 16:45:00,
2013-03-11 12:50:00,41.0,34.7,29.88,West,270,6.0,23.0,78,0.00,,,0.00,Weather View 32 v70,2013-03-11 16:50:00,
2013-03-11 12:55:00,41.0,34.7,29.89,SSE,157,9.0,23.0,78,0.00,,,0.00,Weather View 32 v70,2013-03-11 16:55:00,
2013-03-11 13:00:00,41.0,34.7,29.89,SSW,202,6.0,21.0,78,0.00,,,0.00,Weather View 32 v70,2013-03-11 17:00:00,
2013-03-11 13:05:00,41.0,34.7,29.89,SSW,202,10.0,21.0,78,0.00,,,0.00,Weather View 32 v70,2013-03-11 17:05:00,
2013-03-11 13:10:00,41.0,35.0,29.89,SW,225,10.0,21.0,79,0.00,,,0.00,Weather View 32 v70,2013-03-11 17:10:00,
2013-03-11 13:15:00,41.0,35.3,29.89,SSW,202,9.0,21.0,80,0.00,,,0.00,Weather View 32 v70,2013-03-11 17:15:00,
2013-03-11 13:20:00,41.0,35.3,29.87,SSW,202,6.0,21.0,80,0.00,,,0.00,Weather View 32 v70,2013-03-11 17:20:00,
2013-03-11 13:25:00,41.0,35.3,29.86,WSW,247,5.0,21.0,80,0.00,,,0.00,Weather View 32 v70,2013-03-11 17:25:00,
2013-03-11 13:30:00,41.0,35.0,29.88,SSW,202,10.0,21.0,79,0.00,,,0.00,Weather View 32 v70,2013-03-11 17:30:00,
2013-03-11 13:35:00,41.0,34.7,29.88,SSW,202,9.0,20.0,78,0.00,,,0.00,Weather View 32 v70,2013-03-11 17:35:00,
2013-03-11 13:40:00,41.0,35.0,29.88,SSE,157,14.0,20.0,79,0.00,,,0.00,Weather View 32 v70,2013-03-11 17:40:00,
2013-03-11 13:45:00,42.0,35.3,29.88,SSW,202,7.0,20.0,77,0.00,,,0.00,Weather View 32 v70,2013-03-11 17:45:00,
2013-03-11 13:50:00,42.0,35.6,29.89,SSW,202,14.0,20.0,78,0.00,,,0.00,Weather View 32 v70,2013-03-11 17:50:00,
2013-03-11 13:55:00,41.0,34.7,29.89,WSW,247,9.0,20.0,78,0.00,,,0.00,Weather View 32 v70,2013-03-11 17:55:00,
2013-03-11 14:00:00,41.0,35.3,29.89,SSW,202,10.0,21.0,80,0.00,,,0.00,Weather View 32 v70,2013-03-11 18:00:00,
2013-03-11 14:05:00,41.0,35.3,29.88,SW,225,16.0,21.0,80,0.00,,,0.00,Weather View 32 v70,2013-03-11 18:05:00,
2013-03-11 14:10:00,41.0,35.3,29.88,SW,225,12.0,21.0,80,0.00,,,0.00,Weather View 32 v70,2013-03-11 18:10:00,
2013-03-11 14:15:00,41.0,35.3,29.88,SW,225,9.0,21.0,80,0.00,,,0.00,Weather View 32 v70,2013-03-11 18:15:00,
2013-03-11 14:20:00,41.0,35.3,29.88,SW,225,8.0,21.0,80,0.00,,,0.00,Weather View 32 v70,2013-03-11 18:20:00,
2013-03-11 14:25:00,41.0,35.3,29.88,SSW,202,5.0,21.0,80,0.00,,,0.00,Weather View 32 v70,2013-03-11 18:25:00,
2013-03-11 14:30:00,41.0,35.3,29.87,SW,225,14.0,21.0,80,0.00,,,0.00,Weather View 32 v70,2013-03-11 18:30:00,
2013-03-11 14:35:00,42.0,36.0,29.89,SW,225,10.0,21.0,79,0.00,,,0.00,Weather View 32 v70,2013-03-11 18:35:00,
2013-03-11 14:40:00,41.0,35.3,29.89,NNE,22,3.0,23.0,80,0.00,,,0.00,Weather View 32 v70,2013-03-11 18:40:00,
2013-03-11 14:45:00,41.0,35.3,29.90,SSW,202,10.0,23.0,80,0.00,,,0.00,Weather View 32 v70,2013-03-11 18:45:00,
2013-03-11 14:50:00,41.0,35.6,29.89,SW,225,14.0,23.0,81,0.00,,,0.00,Weather View 32 v70,2013-03-11 18:50:00,
2013-03-11 14:55:00,41.0,35.6,29.88,SSE,157,10.0,23.0,81,0.00,,,0.00,Weather View 32 v70,2013-03-11 18:55:00,
2013-03-11 15:05:00,41.0,35.6,29.87,SSW,202,8.0,23.0,81,0.00,,,0.00,Weather View 32 v70,2013-03-11 19:05:00,
2013-03-11 15:10:00,41.0,35.3,29.87,SW,225,10.0,23.0,80,0.00,,,0.00,Weather View 32 v70,2013-03-11 19:10:00,
2013-03-11 15:15:00,41.0,35.3,29.87,SE,135,5.0,23.0,80,0.00,,,0.00,Weather View 32 v70,2013-03-11 19:15:00,
2013-03-11 15:20:00,41.0,35.6,29.88,SW,225,9.0,23.0,81,0.00,,,0.00,Weather View 32 v70,2013-03-11 19:20:00,
2013-03-11 15:25:00,40.0,34.9,29.88,WSW,247,12.0,23.0,82,0.00,,,0.00,Weather View 32 v70,2013-03-11 19:25:00,
2013-03-11 15:30:00,40.0,35.2,29.88,SSW,202,4.0,23.0,83,0.00,,,0.00,Weather View 32 v70,2013-03-11 19:30:00,
2013-03-11 15:35:00,41.0,35.9,29.88,SW,225,15.0,23.0,82,0.00,,,0.00,Weather View 32 v70,2013-03-11 19:35:00,
2013-03-11 15:40:00,41.0,35.9,29.85,WSW,247,5.0,23.0,82,0.00,,,0.00,Weather View 32 v70,2013-03-11 19:40:00,
2013-03-11 15:45:00,41.0,35.9,29.87,SSW,202,10.0,22.0,82,0.00,,,0.00,Weather View 32 v70,2013-03-11 19:45:00,
2013-03-11 15:50:00,41.0,35.9,29.87,WSW,247,11.0,22.0,82,0.00,,,0.00,Weather View 32 v70,2013-03-11 19:50:00,
2013-03-11 15:55:00,40.0,35.2,29.86,SSE,157,5.0,22.0,83,0.00,,,0.00,Weather View 32 v70,2013-03-11 19:55:00,
2013-03-11 16:00:00,40.0,35.6,29.86,SW,225,8.0,22.0,84,0.00,,,0.00,Weather View 32 v70,2013-03-11 20:00:00,
2013-03-11 16:05:00,40.0,35.9,29.86,West,270,6.0,22.0,85,0.00,,,0.00,Weather View 32 v70,2013-03-11 20:05:00,
2013-03-11 16:10:00,40.0,35.9,29.86,SSW,202,15.0,22.0,85,0.00,,,0.00,Weather View 32 v70,2013-03-11 20:10:00,
2013-03-11 16:15:00,40.0,36.1,29.85,SSW,202,17.0,22.0,86,0.00,,,0.00,Weather View 32 v70,2013-03-11 20:15:00,
2013-03-11 16:20:00,40.0,36.1,29.85,WSW,247,9.0,23.0,86,0.00,,,0.00,Weather View 32 v70,2013-03-11 20:20:00,
2013-03-11 16:25:00,39.0,35.2,29.84,SW,225,10.0,23.0,86,0.00,,,0.00,Weather View 32 v70,2013-03-11 20:25:00,
2013-03-11 16:30:00,40.0,36.1,29.84,SE,135,3.0,23.0,86,0.00,,,0.00,Weather View 32 v70,2013-03-11 20:30:00,
2013-03-11 16:35:00,40.0,36.1,29.84,SSW,202,13.0,23.0,86,0.00,,,0.00,Weather View 32 v70,2013-03-11 20:35:00,
2013-03-11 16:40:00,40.0,36.1,29.84,SW,225,11.0,23.0,86,0.00,,,0.00,Weather View 32 v70,2013-03-11 20:40:00,
2013-03-11 16:45:00,40.0,36.1,29.83,SSW,202,9.0,23.0,86,0.00,,,0.00,Weather View 32 v70,2013-03-11 20:45:00,
2013-03-11 16:50:00,40.0,36.1,29.83,SSE,157,5.0,23.0,86,0.00,,,0.00,Weather View 32 v70,2013-03-11 20:50:00,
2013-03-11 16:55:00,40.0,36.1,29.84,SSW,202,11.0,23.0,86,0.00,,,0.00,Weather View 32 v70,2013-03-11 20:55:00,
2013-03-11 17:00:00,39.0,35.5,29.83,ESE,112,2.0,23.0,87,0.00,,,0.00,Weather View 32 v70,2013-03-11 21:00:00,
2013-03-11 17:05:00,39.0,35.7,29.81,SSW,202,15.0,23.0,88,0.00,,,0.00,Weather View 32 v70,2013-03-11 21:05:00,
2013-03-11 17:10:00,39.0,35.7,29.83,SSW,202,6.0,23.0,88,0.00,,,0.00,Weather View 32 v70,2013-03-11 21:10:00,
2013-03-11 17:15:00,39.0,35.7,29.80,ESE,112,6.0,23.0,88,0.00,,,0.00,Weather View 32 v70,2013-03-11 21:15:00,
2013-03-11 17:20:00,39.0,35.7,29.81,South,180,12.0,19.0,88,0.00,,,0.00,Weather View 32 v70,2013-03-11 21:20:00,
2013-03-11 17:25:00,39.0,35.7,29.82,SSW,202,13.0,20.0,88,0.00,,,0.00,Weather View 32 v70,2013-03-11 21:25:00,
2013-03-11 17:30:00,39.0,36.0,29.82,SW,225,7.0,20.0,89,0.00,,,0.00,Weather View 32 v70,2013-03-11 21:30:00,
2013-03-11 17:35:00,39.0,36.0,29.82,SSW,202,17.0,20.0,89,0.00,,,0.00,Weather View 32 v70,2013-03-11 21:35:00,
2013-03-11 17:40:00,39.0,36.0,29.82,SSW,202,7.0,20.0,89,0.00,,,0.00,Weather View 32 v70,2013-03-11 21:40:00,
2013-03-11 17:45:00,39.0,36.0,29.80,SSW,202,5.0,20.0,89,0.00,,,0.00,Weather View 32 v70,2013-03-11 21:45:00,
2013-03-11 17:50:00,39.0,36.0,29.81,SSE,157,6.0,20.0,89,0.00,,,0.00,Weather View 32 v70,2013-03-11 21:50:00,
2013-03-11 17:55:00,39.0,36.0,29.79,SW,225,8.0,20.0,89,0.00,,,0.00,Weather View 32 v70,2013-03-11 21:55:00,
2013-03-11 18:00:00,39.0,36.0,29.82,SSW,202,16.0,20.0,89,0.00,,,0.00,Weather View 32 v70,2013-03-11 22:00:00,
2013-03-11 18:05:00,39.0,36.3,29.82,SSW,202,9.0,20.0,90,0.00,,,0.00,Weather View 32 v70,2013-03-11 22:05:00,
2013-03-11 18:10:00,39.0,36.3,29.82,WSW,247,7.0,21.0,90,0.00,,,0.00,Weather View 32 v70,2013-03-11 22:10:00,
2013-03-11 18:15:00,39.0,36.3,29.81,SW,225,9.0,21.0,90,0.00,,,0.00,Weather View 32 v70,2013-03-11 22:15:00,
2013-03-11 18:20:00,39.0,36.3,29.82,SSW,202,13.0,21.0,90,0.00,,,0.00,Weather View 32 v70,2013-03-11 22:20:00,
2013-03-11 18:25:00,39.0,36.3,29.82,SSW,202,9.0,21.0,90,0.00,,,0.00,Weather View 32 v70,2013-03-11 22:25:00,
2013-03-11 18:30:00,39.0,36.6,29.82,SW,225,13.0,21.0,91,0.00,,,0.00,Weather View 32 v70,2013-03-11 22:30:00,
2013-03-11 18:35:00,39.0,36.6,29.82,SSW,202,14.0,21.0,91,0.00,,,0.00,Weather View 32 v70,2013-03-11 22:35:00,
2013-03-11 18:40:00,39.0,36.6,29.82,SSW,202,8.0,21.0,91,0.00,,,0.00,Weather View 32 v70,2013-03-11 22:40:00,
2013-03-11 18:45:00,39.0,36.6,29.82,SSW,202,7.0,21.0,91,0.00,,,0.00,Weather View 32 v70,2013-03-11 22:45:00,
2013-03-11 18:50:00,39.0,36.6,29.82,SSW,202,7.0,21.0,91,0.00,,,0.00,Weather View 32 v70,2013-03-11 22:50:00,
2013-03-11 18:55:00,38.0,35.9,29.82,SSW,202,9.0,21.0,92,0.00,,,0.00,Weather View 32 v70,2013-03-11 22:55:00,
2013-03-11 19:00:00,38.0,35.9,29.82,SSW,202,11.0,21.0,92,0.00,,,0.00,Weather View 32 v70,2013-03-11 23:00:00,
2013-03-11 19:05:00,38.0,35.9,29.82,SSW,202,7.0,21.0,92,0.00,,,0.00,Weather View 32 v70,2013-03-11 23:05:00,
2013-03-11 19:10:00,39.0,36.9,29.82,SSW,202,10.0,20.0,92,0.00,,,0.00,Weather View 32 v70,2013-03-11 23:10:00,
2013-03-11 19:15:00,39.0,36.9,29.82,SW,225,9.0,20.0,92,0.00,,,0.00,Weather View 32 v70,2013-03-11 23:15:00,
2013-03-11 19:20:00,39.0,36.9,29.82,SSW,202,8.0,20.0,92,0.00,,,0.00,Weather View 32 v70,2013-03-11 23:20:00,
2013-03-11 19:25:00,39.0,36.9,29.82,South,180,9.0,18.0,92,0.00,,,0.00,Weather View 32 v70,2013-03-11 23:25:00,
2013-03-11 19:30:00,39.0,36.9,29.82,SW,225,6.0,18.0,92,0.00,,,0.00,Weather View 32 v70,2013-03-11 23:30:00,
2013-03-11 19:35:00,39.0,36.9,29.82,SSW,202,6.0,18.0,92,0.00,,,0.00,Weather View 32 v70,2013-03-11 23:35:00,
2013-03-11 19:40:00,39.0,36.9,29.82,SW,225,6.0,17.0,92,0.00,,,0.00,Weather View 32 v70,2013-03-11 23:40:00,
2013-03-11 19:45:00,39.0,36.9,29.82,SSW,202,12.0,17.0,92,0.00,,,0.00,Weather View 32 v70,2013-03-11 23:45:00,
2013-03-11 19:50:00,39.0,36.9,29.82,SSW,202,10.0,17.0,92,0.00,,,0.00,Weather View 32 v70,2013-03-11 23:50:00,
2013-03-11 19:55:00,39.0,36.9,29.82,SSW,202,16.0,16.0,92,0.00,,,0.00,Weather View 32 v70,2013-03-11 23:55:00,
2013-03-11 20:00:00,39.0,37.1,29.82,SSW,202,5.0,17.0,93,0.00,,,0.00,Weather View 32 v70,2013-03-12 00:00:00,
2013-03-11 20:05:00,39.0,37.1,29.82,SW,225,5.0,17.0,93,0.00,,,0.00,Weather View 32 v70,2013-03-12 00:05:00,
2013-03-11 20:10:00,39.0,37.1,29.80,SSW,202,4.0,17.0,93,0.00,,,0.00,Weather View 32 v70,2013-03-12 00:10:00,
2013-03-11 20:15:00,39.0,37.1,29.80,WSW,247,8.0,17.0,93,0.00,,,0.00,Weather View 32 v70,2013-03-12 00:15:00,
2013-03-11 20:20:00,39.0,37.1,29.82,SSE,157,7.0,17.0,93,0.00,,,0.00,Weather View 32 v70,2013-03-12 00:20:00,
2013-03-11 20:25:00,39.0,37.1,29.82,South,180,7.0,17.0,93,0.00,,,0.00,Weather View 32 v70,2013-03-12 00:25:00,
2013-03-11 20:30:00,39.0,37.1,29.82,South,180,9.0,17.0,93,0.00,,,0.00,Weather View 32 v70,2013-03-12 00:30:00,
2013-03-11 20:35:00,39.0,37.4,29.82,SSW,202,5.0,17.0,94,0.00,,,0.00,Weather View 32 v70,2013-03-12 00:35:00,
2013-03-11 20:40:00,39.0,37.4,29.82,SSW,202,10.0,17.0,94,0.00,,,0.00,Weather View 32 v70,2013-03-12 00:40:00,
2013-03-11 20:45:00,39.0,37.4,29.82,SSW,202,6.0,17.0,94,0.00,,,0.00,Weather View 32 v70,2013-03-12 00:45:00,
2013-03-11 20:50:00,39.0,37.4,29.82,SSW,202,9.0,17.0,94,0.00,,,0.00,Weather View 32 v70,2013-03-12 00:50:00,
2013-03-11 20:55:00,39.0,37.4,29.82,SSW,202,9.0,17.0,94,0.00,,,0.00,Weather View 32 v70,2013-03-12 00:55:00,
2013-03-11 21:00:00,39.0,37.4,29.82,SW,225,8.0,14.0,94,0.00,,,0.00,Weather View 32 v70,2013-03-12 01:00:00,
2013-03-11 21:05:00,39.0,37.4,29.82,SW,225,1.0,14.0,94,0.00,,,0.00,Weather View 32 v70,2013-03-12 01:05:00,
2013-03-11 21:10:00,39.0,37.4,29.82,WSW,247,5.0,14.0,94,0.00,,,0.00,Weather View 32 v70,2013-03-12 01:10:00,
2013-03-11 21:15:00,39.0,37.4,29.82,SSW,202,6.0,14.0,94,0.00,,,0.00,Weather View 32 v70,2013-03-12 01:15:00,
2013-03-11 21:20:00,39.0,37.4,29.82,SSW,202,5.0,14.0,94,0.00,,,0.00,Weather View 32 v70,2013-03-12 01:20:00,
2013-03-11 21:25:00,39.0,37.7,29.82,SE,135,5.0,14.0,95,0.00,,,0.00,Weather View 32 v70,2013-03-12 01:25:00,
2013-03-11 21:30:00,39.0,37.7,29.82,WSW,247,4.0,14.0,95,0.00,,,0.00,Weather View 32 v70,2013-03-12 01:30:00,
2013-03-11 21:35:00,39.0,37.7,29.81,SSW,202,5.0,14.0,95,0.00,,,0.00,Weather View 32 v70,2013-03-12 01:35:00,
2013-03-11 21:40:00,39.0,37.7,29.81,SW,225,6.0,14.0,95,0.00,,,0.00,Weather View 32 v70,2013-03-12 01:40:00,
2013-03-11 21:45:00,39.0,37.7,29.82,SSW,202,10.0,15.0,95,0.00,,,0.00,Weather View 32 v70,2013-03-12 01:45:00,
2013-03-11 21:50:00,39.0,37.7,29.82,SSW,202,8.0,15.0,95,0.00,,,0.00,Weather View 32 v70,2013-03-12 01:50:00,
2013-03-11 21:55:00,39.0,37.7,29.82,SW,225,1.0,15.0,95,0.00,,,0.00,Weather View 32 v70,2013-03-12 01:55:00,
2013-03-11 22:01:00,39.0,37.7,29.82,South,180,9.0,15.0,95,0.00,,,0.00,Weather View 32 v70,2013-03-12 02:01:00,
2013-03-11 22:06:00,39.0,38.0,29.82,SSW,202,6.0,15.0,96,0.00,,,0.00,Weather View 32 v70,2013-03-12 02:06:00,
2013-03-11 22:11:00,39.0,38.0,29.82,SW,225,6.0,15.0,96,0.00,,,0.00,Weather View 32 v70,2013-03-12 02:11:00,
2013-03-11 22:16:00,39.0,38.0,29.82,SSW,202,6.0,15.0,96,0.00,,,0.00,Weather View 32 v70,2013-03-12 02:16:00,
2013-03-11 22:21:00,39.0,38.0,29.82,SW,225,4.0,15.0,96,0.00,,,0.00,Weather View 32 v70,2013-03-12 02:21:00,
2013-03-11 22:26:00,39.0,38.0,29.82,SSW,202,8.0,15.0,96,0.00,,,0.00,Weather View 32 v70,2013-03-12 02:26:00,
2013-03-11 22:31:00,39.0,38.2,29.82,South,180,5.0,15.0,97,0.00,,,0.00,Weather View 32 v70,2013-03-12 02:31:00,
2013-03-11 22:36:00,39.0,38.2,29.82,SW,225,11.0,15.0,97,0.00,,,0.00,Weather View 32 v70,2013-03-12 02:36:00,
2013-03-11 22:41:00,39.0,38.2,29.81,SSW,202,7.0,16.0,97,0.00,,,0.00,Weather View 32 v70,2013-03-12 02:41:00,
2013-03-11 22:46:00,39.0,38.2,29.81,West,270,7.0,16.0,97,0.00,,,0.00,Weather View 32 v70,2013-03-12 02:46:00,
2013-03-11 22:51:00,39.0,38.2,29.81,West,270,2.0,16.0,97,0.00,,,0.00,Weather View 32 v70,2013-03-12 02:51:00,
2013-03-11 22:56:00,39.0,38.2,29.81,SSW,202,10.0,16.0,97,0.00,,,0.00,Weather View 32 v70,2013-03-12 02:56:00,
2013-03-11 23:01:00,39.0,38.2,29.81,SSW,202,10.0,16.0,97,0.00,,,0.00,Weather View 32 v70,2013-03-12 03:01:00,
2013-03-11 23:07:00,39.0,38.2,29.81,South,180,5.0,16.0,97,0.00,,,0.00,Weather View 32 v70,2013-03-12 03:07:00,
2013-03-11 23:12:00,39.0,38.2,29.81,WSW,247,7.0,16.0,97,0.00,,,0.00,Weather View 32 v70,2013-03-12 03:12:00,
2013-03-11 23:17:00,39.0,38.2,29.81,SSW,202,11.0,16.0,97,0.00,,,0.00,Weather View 32 v70,2013-03-12 03:17:00,
2013-03-11 23:22:00,39.0,38.2,29.80,SSE,157,6.0,16.0,97,0.00,,,0.00,Weather View 32 v70,2013-03-12 03:22:00,
2013-03-11 23:27:00,39.0,38.2,29.80,WSW,247,9.0,16.0,97,0.00,,,0.00,Weather View 32 v70,2013-03-12 03:27:00,
2013-03-11 23:32:00,39.0,38.2,29.80,SSW,202,12.0,16.0,97,0.00,,,0.00,Weather View 32 v70,2013-03-12 03:32:00,
2013-03-11 23:37:00,39.0,38.2,29.80,SSW,202,11.0,16.0,97,0.00,,,0.00,Weather View 32 v70,2013-03-12 03:37:00,
2013-03-11 23:42:00,39.0,38.2,29.80,SSW,202,9.0,16.0,97,0.00,,,0.00,Weather View 32 v70,2013-03-12 03:42:00,
2013-03-11 23:47:00,40.0,39.5,29.80,SSW,202,8.0,16.0,98,0.00,,,0.00,Weather View 32 v70,2013-03-12 03:47:00,
2013-03-11 23:52:00,40.0,39.5,29.80,SSW,202,10.0,16.0,98,0.00,,,0.00,Weather View 32 v70,2013-03-12 03:52:00,
2013-03-11 23:57:00,40.0,39.5,29.80,SSW,202,11.0,16.0,98,0.00,,,0.00,Weather View 32 v70,2013-03-12 03:57:00,